Date String (YYYY-MM-DD hh:mm:ss) UTC,Instrument flags,Ambient pressure (hPa),Sample flow (lpm),Bypass flow (lpm),Sample temperature (°C),Ambient temperature (°C),ASC tube jacket temperature (°C),LED temperature (°C),Box temperature (°C),Sample RH (%),Mass concentration (μg/m³),Mass concentration (μg/m³)
DateTimeUTC,F1_M11,P_M11,Q1_M11,Q2_M11,T1_M11,T2_M11,T3_M11,T4_M11,T5_M11,U1_M11,X0_M11,X2_M11
2021-08-17 00:00:00,,0825.9,4.99,0.00,29.0,27.9,00.0,37.9,30.9,17.3,0033.61,0024.34
2021-08-17 00:01:00,,0826.0,5.01,0.00,29.0,28.0,00.0,37.9,30.9,16.8,0034.04,0024.49
2021-08-17 00:02:00,,0826.0,5.01,0.00,29.0,26.7,00.0,37.9,30.6,16.7,0033.98,0024.63
2021-08-17 00:03:00,,0825.9,4.99,0.00,28.8,25.6,00.0,37.9,30.3,17.4,0033.09,0024.65
2021-08-17 00:04:00,,0826.0,4.99,0.00,28.8,25.9,00.0,37.9,30.3,17.5,0033.04,0024.72
2021-08-17 00:05:00,,0825.9,5.01,0.00,28.8,26.3,00.0,37.8,30.4,17.4,0033.08,0024.80
2021-08-17 00:06:00,,0826.0,5.01,0.00,28.8,26.7,00.0,37.8,30.5,17.5,0034.45,0024.89
2021-08-17 00:07:00,,0826.0,5.00,0.00,28.8,27.2,00.0,37.8,30.7,17.2,0035.49,0025.03
2021-08-17 00:08:00,,0826.0,4.99,0.00,28.9,27.5,00.0,37.9,30.8,16.5,0035.75,0025.05
2021-08-17 00:09:00,,0826.0,5.00,0.00,29.0,27.9,00.0,37.9,30.9,17.0,0036.77,0025.12
2021-08-17 00:10:00,,0826.0,5.01,0.00,29.0,27.5,00.0,37.9,30.8,17.0,0037.27,0025.18
2021-08-17 00:11:00,,0825.9,5.00,0.00,28.9,25.9,00.0,37.9,30.4,17.4,0038.06,0025.25
2021-08-17 00:12:00,,0826.0,5.01,0.00,28.8,25.7,00.0,37.9,30.3,16.5,0038.53,0025.27
2021-08-17 00:13:00,,0825.9,5.00,0.00,28.8,26.1,00.0,37.9,30.4,16.4,0038.77,0025.28
2021-08-17 00:14:00,,0825.9,5.00,0.00,28.8,26.5,00.0,37.9,30.5,16.1,0038.99,0025.32
2021-08-17 00:15:00,,0825.9,5.00,0.00,28.8,26.9,00.0,37.9,30.6,16.5,0039.13,0025.37
2021-08-17 00:16:00,,0825.9,4.99,0.00,28.9,27.2,00.0,37.9,30.7,16.6,0039.64,0025.49
2021-08-17 00:17:00,,0825.9,5.00,0.00,28.9,27.6,00.0,37.9,30.8,16.4,0038.26,0025.48
2021-08-17 00:18:00,,0825.9,4.99,0.00,29.0,27.9,00.0,37.9,31.0,16.3,0037.79,0025.41
2021-08-17 00:19:00,,0825.9,4.99,0.00,29.1,27.6,00.0,37.9,30.9,16.7,0037.69,0025.40
2021-08-17 00:20:00,,0825.8,5.00,0.00,28.9,26.0,00.0,37.9,30.3,17.0,0037.28,0025.36
2021-08-17 00:21:00,,0825.8,5.01,0.00,28.8,25.6,00.0,37.9,30.2,17.2,0036.85,0025.25
2021-08-17 00:22:00,,0825.8,4.99,0.00,28.8,26.1,00.0,37.9,30.3,17.4,0036.82,0025.19
2021-08-17 00:23:00,,0825.7,5.00,0.00,28.8,26.5,00.0,37.9,30.4,17.5,0037.15,0025.23
2021-08-17 00:24:00,,0825.9,5.01,0.00,28.8,26.9,00.0,37.9,30.6,17.7,0037.10,0025.22
2021-08-17 00:25:00,,0825.8,5.00,0.00,28.9,27.3,00.0,37.9,30.8,18.0,0037.06,0025.20
2021-08-17 00:26:00,,0825.8,4.99,0.00,28.9,27.7,00.0,37.9,30.9,17.4,0037.42,0025.18
2021-08-17 00:27:00,,0825.9,5.00,0.00,29.0,27.9,00.0,37.9,30.9,17.3,0037.91,0025.10
2021-08-17 00:28:00,,0826.2,5.00,0.00,29.0,26.8,00.0,37.9,30.6,17.8,0038.36,0025.05
2021-08-17 00:29:00,,0825.8,5.01,0.00,28.8,25.5,00.0,37.9,30.2,17.7,0038.19,0025.08
2021-08-17 00:30:00,,0825.8,5.02,0.00,28.8,25.8,00.0,37.9,30.2,17.3,0038.66,0025.07
2021-08-17 00:31:00,,0825.8,4.99,0.00,28.7,26.2,00.0,37.9,30.3,17.8,0039.28,0025.10
2021-08-17 00:32:00,,0825.7,5.00,0.00,28.7,26.6,00.0,37.8,30.5,17.7,0039.26,0025.13
2021-08-17 00:33:00,,0825.8,5.00,0.00,28.8,27.1,00.0,37.8,30.6,17.8,0039.10,0025.15
2021-08-17 00:34:00,,0825.8,5.01,0.00,28.9,27.5,00.0,37.9,30.8,17.8,0038.09,0025.06
2021-08-17 00:35:00,,0826.1,4.99,0.00,28.9,27.8,00.0,37.9,30.9,17.7,0038.44,0025.04
2021-08-17 00:36:00,,0826.0,5.00,0.00,29.0,28.0,00.0,37.9,31.0,18.0,0038.93,0024.99
2021-08-17 00:37:00,,0826.0,5.00,0.00,29.0,27.0,00.0,37.9,30.6,18.0,0039.40,0024.94
2021-08-17 00:38:00,,0825.8,5.01,0.00,28.8,25.6,00.0,37.9,30.2,18.1,0038.61,0024.95
2021-08-17 00:39:00,,0825.7,4.99,0.00,28.8,25.8,00.0,37.9,30.2,18.2,0038.48,0024.97
2021-08-17 00:40:00,,0825.7,5.01,0.00,28.7,26.2,00.0,37.9,30.3,18.2,0039.01,0024.96
2021-08-17 00:41:00,,0825.7,4.99,0.00,28.7,26.6,00.0,37.9,30.4,18.3,0040.31,0024.93
2021-08-17 00:42:00,,0825.8,5.01,0.00,28.8,27.0,00.0,37.8,30.6,18.4,0039.75,0024.89
2021-08-17 00:43:00,,0825.7,5.00,0.00,28.9,27.4,00.0,37.9,30.7,18.4,0039.51,0024.89
2021-08-17 00:44:00,,0825.7,5.00,0.00,28.9,27.8,00.0,37.9,30.9,18.3,0039.35,0024.89
2021-08-17 00:45:00,,0825.7,5.01,0.00,29.0,28.0,00.0,37.9,31.0,18.4,0039.89,0024.95
2021-08-17 00:46:00,,0825.6,5.00,0.00,29.0,27.0,00.0,37.9,30.7,18.2,0039.38,0024.91
2021-08-17 00:47:00,,0825.6,5.01,0.00,28.9,25.5,00.0,37.9,30.2,18.6,0038.61,0024.88
2021-08-17 00:48:00,,0825.6,4.99,0.00,28.8,25.6,00.0,37.9,30.2,18.2,0038.73,0024.93
2021-08-17 00:49:00,,0825.6,4.99,0.00,28.7,26.1,00.0,37.9,30.3,18.0,0039.30,0024.92
2021-08-17 00:50:00,,0825.6,5.01,0.00,28.7,26.5,00.0,37.8,30.4,18.1,0039.07,0024.88
2021-08-17 00:51:00,,0825.6,5.01,0.00,28.8,27.0,00.0,37.8,30.6,18.3,0038.39,0024.83
2021-08-17 00:52:00,,0825.6,4.99,0.00,28.8,27.3,00.0,37.8,30.7,18.4,0037.03,0024.83
2021-08-17 00:53:00,,0825.6,5.00,0.00,28.9,27.7,00.0,37.9,30.9,18.1,0037.47,0024.79
2021-08-17 00:54:00,,0825.6,5.00,0.00,29.0,28.0,00.0,37.9,31.0,18.2,0038.31,0024.75
2021-08-17 00:55:00,,0825.6,5.00,0.00,29.0,27.1,00.0,37.9,30.7,17.8,0039.86,0024.70
2021-08-17 00:56:00,,0825.7,5.01,0.00,28.9,25.6,00.0,37.9,30.2,17.6,0039.82,0024.64
2021-08-17 00:57:00,,0825.6,4.99,0.00,28.8,25.6,00.0,37.9,30.2,17.7,0039.83,0024.60
2021-08-17 00:58:00,,0825.7,4.99,0.00,28.7,26.0,00.0,37.9,30.3,17.8,0041.00,0024.63
2021-08-17 00:59:00,,0825.6,5.01,0.00,28.7,26.5,00.0,37.8,30.4,17.8,0040.35,0024.53
